Location: Bratsk-Energetik
(56.3300°N, 101.7600°E)
Time: 01:17:02
(UTC+08:00)

ISS - Pass Details

Date: 23 May 2017
Orbit: 403 x 406 km, 51.6° (Epoch: 15 December)

Event Time Altitude Azimuth Distance (km) Brightness Sun altitude
Exits shadow 23:39:54 15° 135° (SE) 1,219 -2.0 -10.9°
Drops below altitude 10° 23:41:20 10° 110° (ESE) 1,499 -1.3 -10.9°
Enters shadow 01:02:12 -20° 253° (WSW) 5,457 1.8 -13.1°
Maximum altitude 01:15:13 33° 170° (S) 726 -3.1 -13.1°
